EHI
0 0 0 0 0 0 0 0 0 0 0 0 0 0 0 0 0 0 0 0 0 0 0 0 0 0 0 0 0 0 0 0 0 0 0 0 0 0 0 0 0 0 0 0
0 0 0 0 0 0 0 0 0 0 0 0 0 0 0 0 0 0 0 0 0 0 0 0 0 0 0 0 0 0 0 0 0 0 0 0 0 0 0 0 0 0 0 0
0 0 0 0 0 0 0 0 0 0 0 0 0 0 0 0 0 0 0 0 0 0 0 0 0 0 0 0 0 0 0 0 0 0 0 0 0 0 0 0 0 0 0 0
0 0 0 0 0 0 0 0 0 0 0 0 0 0 0 0 0 0 0 0 0 0 0 0 0 0 0 0 0 0 0 0 0 0 0 0 0 0 0 0 0 0 0 0
0 0 0 0 0 0 0 0 0 0 0 0 0 0 0 0 0 0 0 0 0 0 0 0 0 0 0 0 0 0 0 0 0 0 0 0 0 0 0 0 0 0 0 0
0 0 0 0 0 0 0 0 0 0 0 0 0 0 0 0 0 0 0 0 0 0 0 0 0 0 0 0 0 0 0 0 0 0 0 0 0 0 0 0 0 0 0 0
0 0 0 0 0 0 0 0 0 0 0 0 0 0 0 0 0 0 0 0 0 0 0 0 0 0 0 0 0 0 0 0 0 0 0 0 0 0 0 0 0 0 0 0
0 0 0 0 0 0 0 0 0 0 0 0 0 0 0 0 0 0 0 0 0 0 0 0 0 0 0 0 0 0 0 0 0 0 0 0 0 0 0 0 0 0 0 0
0 0 0 0 0 0 0 0 0 0 0 0 0 0 0 0 0 0 0 0 0 0 0 0 0 0 0 0 0 0 0 0 0 0 0 0 0 0 0 0 0 0 0 0
0 0 0 0 0 0 0 0 0 0 0 0 0 0 0 0 0 0 0 0 0 0 0 0 0 0 0 0 0 0 0 0 0 0 0 0 0 0 0 0 0 0 0 0
0 0 0 0 0 0 0 0 0 0 0 0 0 0 0 0 0 0 0 0 0 0 0 0 0 0 0 0 0 0 0 0 0 0 0 0 0 0 0 0 0 0 0 0
0 0 0 0 0 0 0 0 0 0 0 0 0 0 0 0 0 0 0 0 0 0 0 0 0 0 0 0 0 0 0 0 0 0 0 0 0 0 0 0 0 0 0 0
0 0 0 0 0 0 0 0 0 0 0 0 0 0 0 0 0 0 0 0 0 0 0 0 0 0 0 0 0 0 0 0 0 0 0 0 0 0 0 0 0 0 0 0
0 0 0 0 0 0 0 0 0 0 0 0 0 0 0 0 0 0 0 0 0 0 0 0 0 0 0 0 0 0 0 0 0 0 0 0 0 0 0 0 0 0 0 0
0 0 0 0 0 0 0 0 0 0 0 0 0 0 0 0 0 0 0 0 0 0 0 0 0 0 0 0 0 0 0 0 0 0 0 0 0 0 0 0 0 0 0 0
0 0 0 0 0 0 0 0 0 0 0 0 0 0 0 0 0 0 0 0 0 0 0 0 0 0 0 0 0 0 0 0 0 0 0 0 0 0 0 0 0 0 0 0
0 0 0 0 0 0 0 0 0 0 0 0 0 0 0 0 0 0 0 0 0 0 0 0 0 0 0 0 0 0 0 0 0 0 0 0 0 0 0 0 0 0 0 0
0 0 0 0 0 0 0 0 0 0 0 0 0 0 0 0 0 0 0 0 0 0 0 0 0 0 0 0 0 0 0 0 0 0 0 0 0 0 0 0 0 0 0 0
0 0 0 0 0 0 0 0 0 0 0 0 0 0 0 0 0 0 0 0 0 0 0 0 0 0 0 0 0 0 0 0 0 0 0 0 0 0 0 0 0 0 0 0
0 0 0 0 0 0 0 0 0 0 0 0 0 0 0 0 0 0 0 0 0 0 0 0 0 0 0 0 0 0 0 0 0 0 0 0 0 0 0 0 0 0 0 0
0 0 0 0 0 0 0 0 0 0 0 0 0 0 0 0 0 0 0 0 0 0 0 0 0 0 0 0 0 0 0 0 0 0 0 0 0 0 0 0 0 0 0 0
0 0 0 0 0 0 0 0 0 0 0 0 0 0 0 0 0 0 0 0 0 0 0 0 0 0 0 0 0 0 0 0 0 0 0 0 0 0 0 0 0 0 0 0
0 0 0 0 0 0 0 0 0 0 0 0 0 0 0 0 0 0 0 0 0 0 0 0 0 0 0 0 0 0 0 0 0 0 0 0 0 0 0 0 0 0 0 0
0 0 0 0 0 0 0 0 0 0 0 0 0 0 0 0 0 0 0 0 0 0 0 0 0 0 0 0 0 0 0 0 0 0 0 0 0 0 0 0 0 0 0 0
0 0 0 0 0 0 0 0 0 0 0 0 0 0 0 0 0 0 0 0 0 0 0 0 0 0 0 0 0 0 0 0 0 0 0 0 0 0 0 0 0 0 0 0
0 0 0 0 0 0 0 0 0 0 0 0 0 0 0 0 0 0 0 0 0 0 0 0 0 0 0 0 0 0 0 0 0 0 0 0 0 0 0 0 0 0 0 0
0 0 0 0 0 0 0 0 0 0 0 0 0 0 0 0 0 0 0 0 0 0 0 0 0 0 0 0 0 0 0 0 0 0 0 0 0 0 0 0 0 0 0 0
Wind_Speed
3 4 3 3 3 4 4 4 4 3 3 5 5 4 5 6 6 6 6 7 7 6 5 5 6 6 7 7 7 7 8 8 8 7 7 7 7 8 7 7 8 6 6 6
2 3 3 3 2 3 3 2 3 2 3 4 3 2 4 5 6 6 6 6 6 5 5 5 5 5 6 6 6 7 8 8 8 8 8 8 7 7 7 7 7 7 7 7
2 3 1 1 5 4 3 3 4 3 4 2 1 2 2 3 4 5 6 6 6 5 4 3 3 3 5 5 5 6 7 7 7 7 8 7 7 8 7 7 7 7 7 6
3 3 3 6 3 5 4 3 4 3 3 4 3 2 2 2 2 4 5 6 6 5 4 2 2 3 4 5 5 6 6 6 6 7 7 7 7 7 6 5 5 6 6 6
4 3 3 3 3 5 4 3 4 3 2 2 2 2 4 3 1 2 3 3 3 3 2 2 2 2 3 4 5 5 5 5 5 6 6 7 7 6 5 5 5 5 5 6
3 2 4 6 5 5 4 2 3 5 4 3 4 2 4 4 2 3 3 3 3 3 3 2 1 2 3 3 4 4 4 4 4 5 6 6 6 5 5 5 5 5 6 6
3 3 6 3 5 7 4 7 5 6 6 4 4 5 5 3 2 3 3 3 3 3 3 1 0 2 2 2 2 1 3 4 5 5 5 6 6 5 5 6 6 6 6 6
4 3 7 6 8 8 8 4 7 6 5 4 3 2 0 1 2 4 4 4 4 3 3 2 1 1 1 1 1 2 4 5 5 6 5 6 6 6 6 6 6 6 6 6
7 7 5 7 7 7 6 7 6 6 5 5 3 1 1 1 2 4 4 4 3 3 3 3 2 0 0 2 1 3 5 4 4 5 5 5 6 6 5 5 5 5 5 5
2 4 3 4 3 5 6 7 7 6 6 5 4 2 2 1 2 3 4 4 3 3 3 3 3 1 1 1 3 5 5 4 4 4 5 5 5 5 5 5 5 5 5 5
3 3 2 3 4 7 7 7 7 6 5 5 4 3 2 0 1 2 3 3 3 3 3 2 2 2 2 2 4 5 4 3 3 3 4 4 4 4 4 3 3 3 2 3
8 9 9 10 8 9 10 9 9 8 6 5 5 3 2 1 1 1 2 3 4 4 3 2 1 2 2 2 5 5 4 3 2 2 2 2 3 3 5 4 5 6 5 4
7 7 7 7 10 10 10 10 8 8 7 5 4 3 3 1 1 1 2 3 4 3 2 1 1 2 2 2 4 5 4 3 2 3 3 3 2 2 1 3 4 5 6 7
6 8 4 6 9 10 9 9 8 7 6 6 5 3 3 2 1 1 2 3 3 2 1 1 2 2 2 1 4 4 3 3 3 3 3 3 3 2 2 1 1 2 4 6
6 6 7 7 9 9 8 7 7 7 6 6 5 4 4 3 2 2 3 2 2 2 2 2 2 3 3 1 3 4 3 2 2 2 2 2 2 2 2 2 1 1 2 3
5 5 7 8 10 9 8 8 8 8 7 6 6 5 5 4 3 3 2 1 1 0 1 0 1 3 3 0 3 3 2 4 4 2 1 1 2 2 2 2 2 1 1 0
9 7 8 9 10 9 9 9 9 9 7 8 8 7 6 4 2 2 2 1 1 2 2 1 2 4 2 1 3 3 3 3 3 2 2 2 2 3 3 3 3 2 2 2
10 10 10 12 11 9 9 9 8 8 8 8 8 7 6 5 4 4 3 0 1 1 1 2 2 3 2 1 1 2 2 2 2 2 2 2 3 3 4 4 4 4 2 1
7 9 9 10 10 10 9 8 8 8 7 8 8 8 7 6 5 5 3 2 2 3 4 3 3 2 2 2 1 1 2 3 3 3 3 4 3 3 3 4 4 4 4 3
7 8 9 9 9 8 9 8 8 7 7 8 8 7 6 6 6 5 4 3 4 5 4 3 2 1 1 2 1 1 2 2 3 3 4 4 4 3 4 4 4 4 4 4
7 8 9 9 9 9 9 9 9 8 8 9 9 9 8 7 6 5 4 4 5 5 4 3 2 2 2 2 3 2 2 2 3 4 4 4 4 4 4 4 4 5 5 4
4 6 8 8 8 7 7 8 8 9 8 8 8 8 7 6 6 5 5 5 5 6 4 3 3 4 4 3 2 3 3 3 3 3 4 4 4 5 5 5 5 5 5 5
1 2 5 6 8 8 7 7 8 9 9 9 9 9 8 7 6 5 5 5 4 7 5 4 6 8 7 3 3 3 4 4 4 4 4 5 5 5 5 5 5 5 5 5
5 3 1 3 4 5 7 7 8 7 8 9 9 9 8 6 5 5 5 6 8 8 6 7 10 10 7 3 3 4 4 4 4 4 4 4 4 5 5 5 5 5 5 6
5 5 4 2 1 4 6 6 6 6 7 6 7 8 7 6 7 6 5 6 9 9 6 8 11 10 5 3 4 4 4 4 4 4 4 4 4 5 5 5 5 5 5 6
5 4 3 2 1 2 2 3 4 4 5 5 5 6 6 5 6 5 5 6 8 8 6 5 5 6 4 4 5 5 5 4 4 4 4 4 5 5 5 5 7 6 6 6
5 4 3 3 3 2 1 1 3 4 5 6 6 6 6 6 6 6 6 6 6 6 6 5 5 5 5 5 5 5 4 4 4 4 4 4 4 4 5 6 5 5 5 6
Wind_Direction
137 154 131 116 90 73 87 138 150 204 238 272 290 297 306 312 323 341 353 352 353 357 2 5 11 13 17 21 24 27 34 35 31 28 31 36 38 40 41 48 56 55 55 49
144 170 140 120 137 119 111 130 151 199 260 254 272 300 321 330 338 350 354 355 354 360 11 17 21 23 26 28 25 32 38 33 30 33 37 37 39 42 46 50 54 58 57 51
191 197 149 235 204 181 169 179 173 199 237 231 267 313 318 332 353 351 353 356 358 1 14 22 24 34 36 33 33 37 37 33 32 36 37 33 40 46 46 47 52 54 51 47
135 138 245 255 212 164 163 194 189 205 229 199 206 240 296 308 4 351 349 355 352 357 13 24 33 38 40 39 41 41 37 33 32 36 35 31 37 40 39 41 48 49 45 39
126 176 271 278 200 171 170 222 206 183 185 182 167 41 338 312 330 334 335 343 335 346 14 38 45 53 57 41 39 41 38 36 34 39 39 35 33 29 28 40 42 40 39 36
125 167 241 244 201 157 116 240 223 154 140 135 111 78 283 291 319 342 338 334 338 349 22 39 27 77 75 46 40 38 39 45 45 46 47 41 35 33 33 45 44 44 42 34
169 222 258 247 142 116 156 229 188 151 146 141 159 198 238 287 345 350 338 332 349 5 9 348 256 99 79 47 31 37 61 58 49 49 54 48 43 39 40 46 46 43 41 31
167 206 256 185 140 176 210 168 144 145 153 153 178 198 219 25 6 357 350 340 351 5 354 324 288 111 65 337 327 78 81 68 56 46 50 50 49 41 38 41 43 34 30 24
185 211 235 175 185 197 153 145 152 153 156 146 144 139 73 34 2 349 347 343 344 357 350 338 326 178 244 291 91 104 96 82 74 63 51 47 50 45 39 35 40 32 29 25
199 260 192 186 167 150 152 151 159 154 149 142 142 130 102 54 357 352 344 341 341 353 357 342 332 332 308 312 121 116 116 110 94 82 64 49 45 44 47 37 35 33 30 21
208 223 171 217 185 159 151 144 146 147 149 151 144 135 140 187 335 342 340 335 347 353 343 328 334 350 6 81 117 116 125 127 112 100 95 74 59 46 48 37 32 40 24 11
209 199 179 204 195 164 153 159 159 155 160 162 159 162 152 196 300 329 339 340 346 348 349 340 355 1 20 90 123 124 124 136 139 135 125 114 102 62 30 30 32 43 45 39
193 178 180 186 178 170 163 167 166 165 168 171 173 166 151 173 242 333 345 346 337 329 337 25 44 9 9 98 129 132 141 151 153 157 165 172 167 145 79 357 10 25 31 35
155 131 149 166 176 173 165 166 163 164 168 167 167 161 147 148 156 340 322 320 328 357 52 73 55 4 343 117 134 138 145 149 148 163 176 184 191 189 176 163 8 348 359 20
162 159 167 165 159 163 160 155 157 168 170 172 172 168 166 172 204 259 286 324 20 48 55 58 40 349 336 96 146 153 152 155 156 165 171 171 171 163 159 156 132 44 9 12
165 143 143 147 162 166 162 166 171 182 184 184 184 187 190 194 215 250 267 339 47 293 239 45 348 319 321 163 157 166 185 188 173 167 164 157 154 147 142 144 141 132 101 9
152 163 169 172 175 176 175 176 178 184 187 189 193 190 187 186 205 236 263 311 269 202 188 209 302 315 323 219 183 191 201 211 196 168 175 177 167 166 167 165 168 178 207 219
183 180 177 177 178 178 183 182 182 184 190 194 185 178 180 183 200 221 241 311 91 139 250 275 309 331 2 21 172 195 203 215 212 205 205 196 184 177 174 178 184 189 207 207
183 176 177 180 181 179 182 186 189 191 190 179 174 181 189 195 201 212 208 172 185 233 259 281 324 10 5 8 75 193 221 225 223 222 212 206 194 188 186 190 195 198 196 192
187 183 180 184 184 180 186 189 186 185 183 174 174 180 191 202 203 203 198 210 224 225 240 264 281 289 320 330 359 240 242 233 224 220 212 208 209 210 204 202 201 199 196 193
188 187 185 185 189 191 189 185 181 186 185 177 178 187 197 205 203 192 189 228 250 233 237 259 228 226 268 298 319 287 267 251 237 222 214 214 217 218 213 209 204 201 197 195
189 190 191 188 187 194 196 187 183 184 181 185 190 189 190 200 203 204 213 217 233 224 218 231 226 237 255 285 290 282 271 261 248 231 220 215 213 216 216 211 208 206 199 193
25 198 197 194 192 194 191 187 187 183 184 189 190 189 193 198 191 190 230 237 227 221 210 224 230 242 260 270 272 276 273 266 253 236 223 217 213 212 212 211 207 202 196 195
29 19 287 217 187 179 190 200 195 192 193 195 196 194 189 194 215 220 216 226 213 212 212 228 239 250 260 255 263 270 271 268 264 251 235 224 218 216 213 209 205 202 198 196
24 23 28 46 163 211 213 207 200 201 198 205 212 208 200 193 200 213 208 218 224 221 223 236 244 253 253 247 255 262 263 261 263 260 243 230 222 217 214 209 204 201 198 198
8 1 356 347 277 253 231 204 203 207 201 211 223 220 213 209 210 209 208 215 221 217 216 226 237 247 242 244 251 254 255 266 279 269 252 240 229 222 217 214 211 205 202 202
347 350 352 350 345 339 305 211 217 225 215 211 221 223 216 211 208 210 212 213 215 216 218 222 225 229 235 240 247 250 251 254 260 261 257 247 236 227 223 220 215 210 205 202